Home > Weather > Lublin > Past weeks

Flag for Poland Past Weather in Lublin, Poland — Yesterday and Last 2 Weeks

Now
63 °F

Partly sunny.


Feels Like: 63 °F
Forecast: 63 / 81 °F
Wind: 1 mph from Southwest

Location: Lublin Radawiec

Current Time: Jul 29, 2016 at 10:02:51 PM

Latest Report: Jul 29, 2016 at 8:00 PM


Visibility: 10 mi

Pressure: 29.92 "Hg

Humidity: 94%

Dew Point: 61 °F

Location of LublinLocation

Past Weather in Lublin — Graph

°F

Lublin Temperature Yesterday

Maximum temperature yesterday: 78 °F (at 12:00 PM)
Minimum temperature yesterday: 64 °F (at 3:00 AM)
Average temperature yesterday: 70 °F

High & Low Weather Summary for the Past Weeks

 TemperatureHumidityPressure
High86 °F (Jul 27, 2:00 PM)98% (Jul 16, 6:00 AM)30.19 "Hg (Jul 16, 6:00 AM)
Low49 °F (Jul 22, 5:00 AM)33% (Jul 21, 1:00 PM)29.67 "Hg (Jul 14, 8:00 PM)
Average66 °F74%30.01 "Hg
* Reported Jul 14 8:00 PM — Jul 29 8:00 PM, Lublin, Weather by CustomWeather, © 2016

Note: Actual official high and low records may vary slightly from our data, if they occured in-between our weather recording intervals... More about our weather records

Advertising

Lublin Weather History for the Previous 24 Hours

Scroll right to see more
 ConditionsComfort  
Time TempWeatherWind HumidityBarometerVisibility
8:00 PM
Fri, Jul 29
63 °FPartly sunny.1 mph94%29.92 "Hg10 mi
7:00 PM62 °FThundershowers. Overcast.2 mph95%29.92 "Hg7 mi
6:00 PM63 °FThundershowers. Overcast.9 mph81%29.94 "Hg6 mi
5:00 PM77 °FPartly sunny.2 mph57%29.88 "Hg19 mi
4:00 PM76 °FOvercast.2 mph64%29.88 "Hg16 mi
3:00 PM74 °FOvercast.2 mph64%29.90 "Hg19 mi
2:00 PM72 °FScattered clouds.3 mph66%29.90 "Hg25 mi
1:00 PM70 °FOvercast.3 mph83%29.91 "Hg14 mi
12:00 PM67 °FLow clouds.3 mph91%29.93 "Hg11 mi
11:00 AM64 °FRain showers. Low clouds.2 mph97%29.94 "Hg2 mi
10:00 AM65 °FSprinkles. Low clouds.2 mph97%29.93 "Hg2 mi
9:00 AM64 °FRain showers. Low clouds.3 mph98%29.93 "Hg2 mi
8:00 AM64 °FRain showers. Low clouds.2 mph97%29.94 "Hg1 mi
7:00 AM64 °FOvercast.2 mph95%29.92 "Hg7 mi
6:00 AM64 °FOvercast.1 mph96%29.92 "Hg7 mi
5:00 AM64 °FLow clouds.3 mph98%29.93 "Hg5 mi
2:00 AM67 °FFog.1 mph96%29.93 "Hg1 mi
11:00 PM
Thu, Jul 28
68 °FFog.No wind96%29.95 "Hg2 mi
10:00 PM68 °FFog.1 mph96%29.95 "Hg4 mi
Weather by CustomWeather, © 2016

See weather overviewHow to use our weather pages